GW4221 Weather Reports


time (UTC)temp
C
wind
direction
speed
KPH
gust
KPH
rain 1hr
cm
rain 24hr
cm
rain mn
cm
humidity
%
barometer
mb
20260506002004 22 3 0.0 3.2 0.00 0.00 0.00 48 1013.7
20260506001509 22 3 0.0 3.2 0.00 0.00 0.00 48 1013.7
20260506001004 22 30 0.0 1.6 0.00 0.00 0.00 49 1013.7
20260506000507 23 30 0.0 1.6 0.00 0.00 0.00 48 1013.7
20260506000008 23 50 0.0 0.0 0.00 0.00 0.00 48 1013.7
20260505235505 23 15 0.0 0.0 0.00 0.00 0.00 48 1013.5
20260505235006 23 15 0.0 1.6 0.00 0.00 0.00 48 1013.5
20260505234510 23 15 0.0 1.6 0.00 0.00 0.00 47 1013.6
20260505234007 23 120 0.0 1.6 0.00 0.00 0.00 46 1013.6
20260505233504 23 120 0.0 1.6 0.00 0.00 0.00 47 1013.6
20260505233016 23 136 0.0 3.2 0.00 0.00 0.00 47 1013.5
20260505232505 23 137 0.0 3.2 0.00 0.00 0.00 47 1013.5
20260505232003 23 6 0.0 0.0 0.00 0.00 0.00 47 1013.5
20260505231511 23 6 0.0 0.0 0.00 0.00 0.00 46 1013.6
20260505231006 23 6 0.0 0.0 0.00 0.00 0.00 45 1013.7
20260505230506 23 6 0.0 0.0 0.00 0.00 0.00 45 1013.7
20260505230011 23 6 0.0 1.6 0.00 0.00 0.00 45 1013.6
20260505225510 23 6 0.0 1.6 0.00 0.00 0.00 44 1013.6
20260505225006 23 6 0.0 8.0 0.00 0.00 0.00 44 1013.6
20260505224513 24 6 0.0 8.0 0.00 0.00 0.00 43 1013.6
20260505224007 24 278 0.0 3.2 0.00 0.00 0.00 44 1013.7
20260505223508 24 341 0.0 4.8 0.00 0.00 0.00 42 1013.6
20260505223016 24 153 0.0 4.8 0.00 0.00 0.00 42 1013.6
20260505222508 24 181 0.0 1.6 0.00 0.00 0.00 41 1013.6
20260505222012 24 217 0.0 3.2 0.00 0.00 0.00 40 1013.4
20260505221514 25 322 0.0 3.2 0.00 0.00 0.00 42 1013.4
20260505221006 25 103 0.0 3.2 0.00 0.00 0.00 41 1013.5
20260505220506 25 228 0.0 1.6 0.00 0.00 0.00 40 1013.8
20260505220036 24 252 0.0 1.6 0.00 0.00 0.00 40 1013.5
20260505215510 25 241 0.0 4.8 0.00 0.00 0.00 39 1013.5
20260505215006 25 229 0.0 4.8 0.00 0.00 0.00 40 1013.7
20260505214525 24 202 0.0 1.6 0.00 0.00 0.00 39 1013.8
20260505214007 25 250 0.0 1.6 0.00 0.00 0.00 40 1013.8
20260505213510 25 244 0.0 6.4 0.00 0.00 0.00 40 1013.7
20260505213019 25 279 1.6 6.4 0.00 0.00 0.00 41 1013.9
20260505212507 25 169 0.0 4.8 0.00 0.00 0.00 41 1013.8
20260505212011 25 332 0.0 3.2 0.00 0.00 0.00 40 1013.7
20260505211517 25 184 0.0 4.8 0.00 0.00 0.00 40 1013.7
20260505211007 25 17 0.0 4.8 0.00 0.00 0.00 42 1013.8
20260505210508 25 309 0.0 4.8 0.00 0.00 0.00 41 1013.8
20260505210017 25 146 0.0 3.2 0.00 0.00 0.00 41 1013.9
20260505205513 25 136 0.0 1.6 0.00 0.00 0.00 40 1013.9
20260505205007 25 144 0.0 1.6 0.00 0.00 0.00 40 1014.1
20260505204519 25 153 0.0 4.8 0.00 0.00 0.00 39 1014.0
20260505204006 25 242 0.0 4.8 0.00 0.00 0.00 42 1014.1
20260505203507 25 4 0.0 4.8 0.00 0.00 0.00 41 1014.0
20260505203016 25 75 0.0 4.8 0.00 0.00 0.00 40 1014.1
20260505202508 25 309 0.0 3.2 0.00 0.00 0.00 40 1014.3
20260505202010 25 300 0.0 6.4 0.00 0.00 0.00 41 1014.5
20260505201518 25 150 0.0 9.7 0.00 0.00 0.00 38 1014.4
20260505201008 25 215 1.6 9.7 0.00 0.00 0.00 39 1014.5
20260505200504 25 163 0.0 3.2 0.00 0.00 0.00 39 1014.6
20260505200005 25 250 0.0 3.2 0.00 0.00 0.00 40 1014.7
20260505195504 25 196 1.6 3.2 0.00 0.00 0.00 41 1014.9
20260505195004 25 314 0.0 8.0 0.00 0.00 0.00 42 1014.9
20260505194516 25 297 0.0 8.0 0.00 0.00 0.00 40 1014.9
20260505194012 25 233 0.0 4.8 0.00 0.00 0.00 40 1014.9
20260505193508 25 191 0.0 4.8 0.00 0.00 0.00 39 1014.9
20260505193011 25 345 0.0 4.8 0.00 0.00 0.00 43 1014.9
20260505192507 25 159 0.0 4.8 0.00 0.00 0.00 40 1014.9
20260505192003 25 203 0.0 4.8 0.00 0.00 0.00 38 1015.0
20260505191503 25 200 0.0 4.8 0.00 0.00 0.00 38 1015.0
20260505191004 25 30 0.0 6.4 0.00 0.00 0.00 38 1015.1
20260505190503 26 32 1.6 12.9 0.00 0.00 0.00 38 1015.2
20260505190005 26 352 1.6 12.9 0.00 0.00 0.00 40 1015.2
20260505185504 26 207 0.0 8.0 0.00 0.00 0.00 39 1015.2
20260505185007 25 181 1.6 9.7 0.00 0.00 0.00 40 1015.4
20260505184504 25 299 3.2 9.7 0.00 0.00 0.00 39 1015.5
20260505184006 26 34 0.0 14.5 0.00 0.00 0.00 39 1015.6
20260505183506 26 201 1.6 14.5 0.00 0.00 0.00 40 1015.6
20260505183007 26 292 0.0 4.8 0.00 0.00 0.00 38 1015.7
20260505182507 26 354 0.0 6.4 0.00 0.00 0.00 40 1015.8
20260505182008 25 285 0.0 8.0 0.00 0.00 0.00 40 1015.8
20260505181515 25 201 1.6 8.0 0.00 0.00 0.00 40 1015.7
20260505181012 25 278 0.0 3.2 0.00 0.00 0.00 42 1016.0
20260505180504 25 209 0.0 3.2 0.00 0.00 0.00 40 1016.1
20260505180004 26 340 0.0 3.2 0.00 0.00 0.00 40 1015.9
20260505175503 25 201 0.0 1.6 0.00 0.00 0.00 41 1016.0
20260505175004 25 248 0.0 6.4 0.00 0.00 0.00 40 1016.1
20260505174503 25 238 0.0 6.4 0.00 0.00 0.00 40 1016.2
20260505174005 25 359 1.6 6.4 0.00 0.00 0.00 43 1016.2
20260505173503 25 274 0.0 6.4 0.00 0.00 0.00 40 1016.3
20260505173008 25 192 0.0 11.3 0.00 0.00 0.00 42 1016.3
20260505172509 25 288 0.0 11.3 0.00 0.00 0.00 40 1016.3
20260505172009 25 275 1.6 11.3 0.00 0.00 0.00 40 1016.3
20260505171513 25 233 0.0 4.8 0.00 0.00 0.00 39 1016.3
20260505171008 25 195 0.0 4.8 0.00 0.00 0.00 43 1016.2
20260505170508 25 274 0.0 6.4 0.00 0.00 0.00 38 1016.2
20260505170016 25 330 1.6 6.4 0.00 0.00 0.00 40 1016.1
20260505165508 25 278 0.0 4.8 0.00 0.00 0.00 39 1016.1
20260505165009 25 359 0.0 6.4 0.00 0.00 0.00 42 1016.2
20260505164506 25 311 0.0 6.4 0.00 0.00 0.00 42 1016.3
20260505164004 25 162 0.0 6.4 0.00 0.00 0.00 41 1016.3
20260505163504 25 217 0.0 6.4 0.00 0.00 0.00 40 1016.5
20260505163008 25 249 0.0 1.6 0.00 0.00 0.00 41 1016.5
20260505162504 25 264 0.0 8.0 0.00 0.00 0.00 41 1016.5
20260505162007 25 228 1.6 8.0 0.00 0.00 0.00 42 1016.5
20260505161506 25 138 0.0 11.3 0.00 0.00 0.00 40 1016.7
20260505161006 25 127 1.6 11.3 0.00 0.00 0.00 41 1016.6
20260505160504 24 36 0.0 9.7 0.00 0.00 0.00 42 1016.6
20260505153006 24 6 0.0 6.4 0.00 0.00 0.00 43 1016.5
20260505152504 24 149 0.0 1.6 0.00 0.00 0.00 41 1016.4
20260505152003 23 149 0.0 1.6 0.00 0.00 0.00 42 1016.5
20260505151509 23 21 0.0 3.2 0.00 0.00 0.00 46 1016.6
20260505151005 23 41 0.0 3.2 0.00 0.00 0.00 46 1016.7
20260505150504 23 348 0.0 4.8 0.00 0.00 0.00 48 1016.6
20260505140504 19 17 0.0 0.0 0.00 0.00 0.00 63 1016.5
20260505125006 13 149 0.0 0.0 0.00 0.00 0.00 81 1016.1
20260505124508 12 149 0.0 0.0 0.00 0.00 0.00 81 1016.1
20260505124008 12 149 0.0 0.0 0.00 0.00 0.00 83 1016.0
20260505123508 11 149 0.0 0.0 0.00 0.00 0.00 85 1016.0
20260505123015 11 149 0.0 0.0 0.00 0.00 0.00 86 1016.1
20260505122507 11 149 0.0 0.0 0.00 0.00 0.00 89 1016.1
20260505122013 10 149 0.0 0.0 0.00 0.00 0.00 90 1016.1
20260505121520 10 149 0.0 0.0 0.00 0.00 0.00 90 1016.1
20260505121009 10 149 0.0 0.0 0.00 0.00 0.00 90 1016.1
20260505120508 9 149 0.0 0.0 0.00 0.00 0.00 90 1016.1
20260505120031 9 149 0.0 0.0 0.00 0.00 0.00 90 1016.0
20260505115510 8 149 0.0 0.0 0.00 0.00 0.00 90 1015.8
20260505115009 8 149 0.0 0.0 0.00 0.00 0.00 90 1015.7
20260505114526 8 149 0.0 0.0 0.00 0.00 0.00 90 1015.7
20260505114011 8 149 0.0 0.0 0.00 0.00 0.00 90 1015.7
20260505113507 8 149 0.0 0.0 0.00 0.00 0.00 90 1015.6
20260505113011 8 149 0.0 0.0 0.00 0.00 0.00 90 1015.5
20260505112506 8 149 0.0 0.0 0.00 0.00 0.00 89 1015.5
20260505112006 8 149 0.0 0.0 0.00 0.00 0.00 89 1015.3
20260505111517 8 149 0.0 0.0 0.00 0.00 0.00 89 1015.3
20260505111010 8 149 0.0 0.0 0.00 0.00 0.00 90 1015.4
20260505110507 8 149 0.0 0.0 0.00 0.00 0.00 89 1015.2
20260505102007 8 149 0.0 0.0 0.00 0.00 0.00 87 1015.1
20260505101521 8 149 0.0 0.0 0.00 0.00 0.00 87 1015.3
20260505101007 8 149 0.0 0.0 0.00 0.00 0.00 87 1015.4
20260505100506 8 149 0.0 0.0 0.00 0.00 0.00 87 1015.5
20260505100017 9 149 0.0 0.0 0.00 0.00 0.00 87 1015.3
20260505095506 9 149 0.0 0.0 0.00 0.00 0.00 87 1015.2
20260505095010 9 149 0.0 0.0 0.00 0.00 0.00 87 1015.3
20260505094523 9 149 0.0 0.0 0.00 0.00 0.00 87 1015.2
20260505094008 8 149 0.0 0.0 0.00 0.00 0.00 88 1015.2
20260505093509 8 197 0.0 0.0 0.00 0.00 0.00 88 1015.1
20260505093004 8 218 0.0 0.0 0.00 0.00 0.00 88 1015.0
20260505092508 8 217 0.0 0.0 0.00 0.00 0.00 87 1015.1
20260505092003 8 217 0.0 0.0 0.00 0.00 0.00 87 1015.1
20260505091512 8 218 0.0 0.0 0.00 0.00 0.00 87 1015.2
20260505091004 8 218 0.0 0.0 0.00 0.00 0.00 87 1015.4
20260505090506 8 218 0.0 0.0 0.00 0.00 0.00 87 1015.4
20260505090015 9 217 0.0 0.0 0.00 0.00 0.00 86 1015.5
20260505085509 9 217 0.0 0.0 0.00 0.00 0.00 86 1015.4
20260505085008 9 218 0.0 0.0 0.00 0.00 0.00 86 1015.4
20260505084540 9 217 0.0 0.0 0.00 0.00 0.00 86 1015.3
20260505084006 9 217 0.0 0.0 0.00 0.00 0.00 86 1015.3
20260505083507 9 217 0.0 0.0 0.00 0.00 0.00 86 1015.3
20260505083022 9 217 0.0 0.0 0.00 0.00 0.00 86 1015.3
20260505082509 10 217 0.0 0.0 0.00 0.00 0.00 86 1015.3
20260505082011 10 218 0.0 0.0 0.00 0.00 0.00 86 1015.4
20260505081527 10 218 0.0 0.0 0.00 0.00 0.00 85 1015.4
20260505081003 10 218 0.0 0.0 0.00 0.00 0.00 85 1015.3
20260505080506 10 217 0.0 0.0 0.00 0.00 0.00 85 1015.3
20260505080011 10 217 0.0 0.0 0.00 0.00 0.00 85 1015.3
20260505075507 10 217 0.0 0.0 0.00 0.00 0.00 85 1015.4
20260505075008 10 217 0.0 0.0 0.00 0.00 0.00 85 1015.3
20260505074516 10 218 0.0 0.0 0.00 0.00 0.00 85 1015.3
20260505074006 10 217 0.0 0.0 0.00 0.00 0.00 85 1015.3
20260505073506 10 217 0.0 0.0 0.00 0.00 0.00 85 1015.2
20260505073022 10 218 0.0 0.0 0.00 0.00 0.00 84 1015.2
20260505072508 10 218 0.0 0.0 0.00 0.00 0.00 84 1015.2
20260505072015 10 217 0.0 0.0 0.00 0.00 0.00 84 1015.2
20260505071525 10 217 0.0 0.0 0.00 0.00 0.00 84 1015.2
20260505071011 10 218 0.0 0.0 0.00 0.00 0.00 84 1015.3
20260505070512 10 217 0.0 0.0 0.00 0.00 0.00 84 1015.2
20260505070036 10 217 0.0 0.0 0.00 0.00 0.00 84 1015.2
20260505065514 10 217 0.0 0.0 0.00 0.00 0.00 83 1015.3
20260505065006 10 217 0.0 0.0 0.00 0.00 0.00 83 1015.2
20260505064517 10 218 0.0 0.0 0.00 0.00 0.00 83 1015.2
20260505064013 10 217 0.0 0.0 0.00 0.00 0.00 83 1015.2
20260505063508 11 218 0.0 0.0 0.00 0.00 0.00 83 1015.3
20260505063028 10 217 0.0 0.0 0.00 0.00 0.00 83 1015.3
20260505062509 10 218 0.0 0.0 0.00 0.00 0.00 83 1015.4
20260505062011 11 217 0.0 0.0 0.00 0.00 0.00 83 1015.5
20260505061525 11 218 0.0 0.0 0.00 0.00 0.00 82 1015.4
20260505061007 11 217 0.0 0.0 0.00 0.00 0.00 82 1015.5
20260505060512 11 217 0.0 0.0 0.00 0.00 0.00 82 1015.5
20260505060032 11 217 0.0 0.0 0.00 0.00 0.00 82 1015.5
20260505055513 11 218 0.0 0.0 0.00 0.00 0.00 82 1015.5
20260505055013 11 218 0.0 0.0 0.00 0.00 0.00 81 1015.5
20260505054526 11 217 0.0 0.0 0.00 0.00 0.00 81 1015.5
20260505054019 11 217 0.0 0.0 0.00 0.00 0.00 80 1015.6
20260505053507 11 217 0.0 0.0 0.00 0.00 0.00 80 1015.5
20260505053019 11 217 0.0 0.0 0.00 0.00 0.00 79 1015.6
20260505052510 11 217 0.0 0.0 0.00 0.00 0.00 79 1015.6
20260505052009 11 217 0.0 0.0 0.00 0.00 0.00 79 1015.6
20260505051521 12 217 0.0 0.0 0.00 0.00 0.00 79 1015.5
20260505051007 12 217 0.0 0.0 0.00 0.00 0.00 78 1015.5
20260505050508 12 217 0.0 0.0 0.00 0.00 0.00 78 1015.4
20260505041516 13 217 0.0 0.0 0.00 0.00 0.00 72 1015.4
20260505041006 13 218 0.0 0.0 0.00 0.00 0.00 72 1015.5
20260505040510 13 218 0.0 0.0 0.00 0.00 0.00 71 1015.5
20260505040005 13 217 0.0 0.0 0.00 0.00 0.00 71 1015.5
20260505035506 13 217 0.0 0.0 0.00 0.00 0.00 71 1015.6
20260505035004 13 217 0.0 0.0 0.00 0.00 0.00 70 1015.7
20260505034504 14 217 0.0 0.0 0.00 0.00 0.00 71 1015.6
20260505034003 14 217 0.0 0.0 0.00 0.00 0.00 71 1015.6
20260505033511 14 217 0.0 0.0 0.00 0.00 0.00 70 1015.7
20260505033012 14 217 0.0 0.0 0.00 0.00 0.00 70 1015.8
20260505032507 14 217 0.0 0.0 0.00 0.00 0.00 70 1015.7
20260505032008 14 217 0.0 0.0 0.00 0.00 0.00 69 1015.7
20260505031516 14 218 0.0 0.0 0.00 0.00 0.00 68 1015.7
20260505031006 14 218 0.0 0.0 0.00 0.00 0.00 69 1015.7
20260505030509 14 218 0.0 0.0 0.00 0.00 0.00 69 1015.7
20260505030020 15 217 0.0 0.0 0.00 0.00 0.00 68 1015.7
20260505025508 15 217 0.0 0.0 0.00 0.00 0.00 67 1015.6
20260505025007 15 217 0.0 0.0 0.00 0.00 0.00 67 1015.7
20260505024521 15 218 0.0 0.0 0.00 0.00 0.00 66 1015.6
20260505024004 15 217 0.0 0.0 0.00 0.00 0.00 65 1015.6
20260505023504 15 217 0.0 0.0 0.00 0.00 0.00 64 1015.5
20260505023008 15 217 0.0 0.0 0.00 0.00 0.00 64 1015.3
20260505022502 15 217 0.0 0.0 0.00 0.00 0.00 64 1015.4
20260505022006 15 217 0.0 0.0 0.00 0.00 0.00 63 1015.3
20260505021512 15 217 0.0 0.0 0.00 0.00 0.00 62 1015.3
20260505021006 15 217 0.0 0.0 0.00 0.00 0.00 61 1015.2
20260505020507 16 217 0.0 0.0 0.00 0.00 0.00 61 1015.3
20260505020018 16 218 0.0 0.0 0.00 0.00 0.00 60 1015.2
20260505015507 16 218 0.0 0.0 0.00 0.00 0.00 60 1015.3
20260505015008 16 217 0.0 0.0 0.00 0.00 0.00 59 1015.2
20260505014518 16 218 0.0 0.0 0.00 0.00 0.00 58 1015.2
20260505014010 16 217 0.0 0.0 0.00 0.00 0.00 57 1015.1
20260505013509 17 217 0.0 0.0 0.00 0.00 0.00 57 1015.1
20260505013024 17 217 0.0 0.0 0.00 0.00 0.00 56 1015.0
20260505012507 17 218 0.0 0.0 0.00 0.00 0.00 55 1015.1
20260505012006 17 217 0.0 0.0 0.00 0.00 0.00 54 1015.0
20260505011520 17 217 0.0 0.0 0.00 0.00 0.00 54 1015.0
20260505011004 17 217 0.0 0.0 0.00 0.00 0.00 52 1014.9
20260505010506 18 217 0.0 0.0 0.00 0.00 0.00 52 1014.8
20260505010017 18 217 0.0 0.0 0.00 0.00 0.00 50 1014.8
20260505005506 18 217 0.0 0.0 0.00 0.00 0.00 50 1014.8
20260505005007 18 217 0.0 0.0 0.00 0.00 0.00 49 1014.8
20260505004516 18 217 0.0 0.0 0.00 0.00 0.00 48 1014.7
20260505004006 19 217 0.0 0.0 0.00 0.00 0.00 48 1014.7
20260505003508 19 217 0.0 0.0 0.00 0.00 0.00 47 1014.7
20260505003020 20 218 0.0 0.0 0.00 0.00 0.00 46 1014.6
20260505002512 20 218 0.0 0.0 0.00 0.00 0.00 46 1014.6